QPF
0.02 0.03 0.05 0.07 0.06 0.05 0.05 0.06 0.04 0.03 0.04 0.04 0.05 0.07 0.07 0.07 0.05 0.05 0.06 0.09 0.09 0.09 0.09 0.09 0.10 0.09 0.08 0.07 0.05 0.07 0.07 0.07 0.07 0.06 0.06 0.05 0.04 0.04 0.04 0.04 0.04 0.04 0.04
0.02 0.03 0.03 0.03 0.04 0.04 0.04 0.04 0.04 0.04 0.03 0.04 0.04 0.05 0.06 0.06 0.06 0.06 0.07 0.09 0.11 0.08 0.07 0.08 0.08 0.09 0.10 0.08 0.07 0.08 0.09 0.09 0.08 0.06 0.06 0.05 0.05 0.05 0.06 0.06 0.05 0.05 0.04
0.01 0.02 0.02 0.03 0.04 0.05 0.05 0.04 0.04 0.03 0.03 0.04 0.04 0.05 0.05 0.06 0.07 0.08 0.08 0.08 0.08 0.08 0.07 0.08 0.09 0.07 0.09 0.09 0.09 0.11 0.14 0.13 0.09 0.08 0.07 0.06 0.07 0.09 0.09 0.08 0.07 0.06 0.05
0.02 0.04 0.04 0.04 0.07 0.05 0.04 0.04 0.05 0.04 0.05 0.06 0.05 0.05 0.04 0.05 0.06 0.08 0.07 0.08 0.07 0.08 0.09 0.10 0.10 0.08 0.10 0.13 0.12 0.14 0.16 0.15 0.09 0.09 0.09 0.10 0.11 0.11 0.10 0.08 0.07 0.06 0.05
0.03 0.04 0.06 0.04 0.03 0.05 0.05 0.05 0.05 0.05 0.06 0.05 0.04 0.05 0.05 0.06 0.05 0.06 0.06 0.07 0.07 0.07 0.09 0.13 0.15 0.13 0.17 0.20 0.09 0.12 0.11 0.08 0.08 0.06 0.07 0.08 0.07 0.07 0.06 0.06 0.05 0.05 0.04
0.02 0.03 0.04 0.03 0.02 0.03 0.05 0.05 0.05 0.05 0.05 0.05 0.04 0.04 0.05 0.04 0.04 0.04 0.05 0.07 0.08 0.06 0.05 0.08 0.10 0.14 0.15 0.10 0.08 0.11 0.15 0.11 0.06 0.05 0.06 0.07 0.07 0.06 0.06 0.06 0.05 0.04 0.04
0.03 0.03 0.03 0.03 0.02 0.02 0.03 0.04 0.05 0.05 0.05 0.06 0.06 0.05 0.05 0.03 0.04 0.03 0.04 0.06 0.08 0.08 0.08 0.07 0.09 0.08 0.10 0.10 0.08 0.08 0.13 0.16 0.11 0.08 0.07 0.08 0.08 0.07 0.06 0.06 0.05 0.04 0.04
0.04 0.03 0.03 0.03 0.03 0.03 0.03 0.03 0.03 0.02 0.03 0.05 0.06 0.06 0.05 0.03 0.02 0.02 0.03 0.05 0.07 0.07 0.08 0.08 0.09 0.08 0.06 0.07 0.07 0.09 0.11 0.15 0.18 0.16 0.13 0.10 0.08 0.07 0.07 0.06 0.07 0.06 0.07
0.03 0.03 0.02 0.03 0.04 0.03 0.02 0.02 0.02 0.02 0.03 0.04 0.06 0.06 0.05 0.03 0.03 0.03 0.03 0.04 0.05 0.06 0.05 0.05 0.06 0.08 0.07 0.07 0.07 0.08 0.11 0.15 0.18 0.20 0.17 0.14 0.10 0.08 0.08 0.08 0.06 0.05 0.05
0.05 0.05 0.04 0.04 0.03 0.02 0.02 0.02 0.02 0.02 0.02 0.03 0.04 0.05 0.05 0.05 0.05 0.04 0.03 0.04 0.04 0.04 0.05 0.04 0.05 0.06 0.08 0.08 0.08 0.09 0.10 0.14 0.18 0.17 0.15 0.14 0.13 0.09 0.05 0.06 0.05 0.03 0.03
0.03 0.03 0.04 0.03 0.03 0.02 0.02 0.02 0.03 0.03 0.03 0.04 0.04 0.04 0.04 0.04 0.04 0.04 0.03 0.03 0.04 0.04 0.03 0.04 0.05 0.06 0.07 0.06 0.06 0.08 0.09 0.11 0.15 0.17 0.14 0.12 0.11 0.10 0.08 0.05 0.04 0.03 0.03
0.02 0.01 0.02 0.02 0.04 0.04 0.04 0.02 0.02 0.02 0.03 0.04 0.04 0.04 0.04 0.04 0.04 0.05 0.04 0.04 0.04 0.04 0.04 0.04 0.05 0.09 0.10 0.09 0.07 0.07 0.09 0.10 0.12 0.16 0.15 0.10 0.10 0.10 0.09 0.07 0.05 0.03 0.04
0.06 0.03 0.02 0.02 0.04 0.05 0.04 0.03 0.01 0.01 0.02 0.02 0.03 0.03 0.04 0.04 0.05 0.06 0.05 0.05 0.05 0.04 0.05 0.05 0.05 0.06 0.08 0.09 0.08 0.08 0.09 0.09 0.10 0.13 0.16 0.14 0.10 0.10 0.08 0.08 0.07 0.06 0.05
0.07 0.07 0.05 0.03 0.03 0.04 0.05 0.04 0.03 0.02 0.02 0.01 0.01 0.02 0.02 0.03 0.04 0.04 0.04 0.04 0.05 0.05 0.06 0.06 0.05 0.05 0.07 0.09 0.09 0.10 0.10 0.11 0.11 0.10 0.11 0.13 0.13 0.11 0.10 0.08 0.07 0.07 0.06
0.03 0.04 0.05 0.04 0.03 0.03 0.03 0.03 0.04 0.04 0.04 0.03 0.02 0.01 0.02 0.02 0.03 0.04 0.04 0.04 0.03 0.03 0.03 0.05 0.06 0.06 0.07 0.09 0.09 0.10 0.10 0.09 0.08 0.07 0.07 0.10 0.12 0.09 0.08 0.07 0.07 0.06 0.06
0.02 0.02 0.03 0.04 0.04 0.04 0.03 0.03 0.02 0.02 0.03 0.03 0.03 0.02 0.02 0.02 0.02 0.03 0.03 0.04 0.04 0.03 0.02 0.03 0.04 0.05 0.07 0.08 0.08 0.08 0.07 0.07 0.06 0.05 0.04 0.06 0.07 0.07 0.07 0.07 0.06 0.06 0.06
0.01 0.01 0.01 0.02 0.02 0.03 0.04 0.03 0.02 0.02 0.02 0.02 0.02 0.02 0.02 0.02 0.02 0.02 0.03 0.04 0.04 0.04 0.02 0.01 0.02 0.03 0.04 0.05 0.06 0.06 0.04 0.03 0.03 0.03 0.03 0.03 0.03 0.05 0.06 0.06 0.06 0.07 0.07
0.01 0.01 0.01 0.00 0.01 0.01 0.02 0.02 0.02 0.02 0.02 0.02 0.02 0.02 0.01 0.01 0.01 0.02 0.02 0.03 0.04 0.04 0.03 0.02 0.03 0.03 0.03 0.03 0.03 0.02 0.02 0.02 0.02 0.03 0.03 0.03 0.02 0.02 0.04 0.04 0.04 0.05 0.06
0.00 0.00 0.00 0.00 0.00 0.00 0.01 0.01 0.01 0.01 0.01 0.01 0.01 0.02 0.02 0.02 0.01 0.01 0.02 0.02 0.03 0.03 0.03 0.03 0.02 0.02 0.03 0.03 0.03 0.02 0.02 0.02 0.02 0.03 0.04 0.03 0.03 0.03 0.03 0.04 0.04 0.04 0.05
0.00 0.00 0.00 0.00 0.00 0.00 0.00 0.00 0.00 0.01 0.01 0.01 0.01 0.01 0.01 0.02 0.01 0.01 0.02 0.02 0.02 0.02 0.02 0.02 0.02 0.02 0.03 0.03 0.03 0.04 0.04 0.03 0.03 0.04 0.05 0.05 0.04 0.04 0.04 0.04 0.05 0.04 0.03
0.00 0.00 0.00 0.00 0.00 0.00 0.00 0.01 0.00 0.00 0.01 0.01 0.01 0.01 0.02 0.02 0.01 0.01 0.01 0.01 0.02 0.02 0.02 0.02 0.01 0.02 0.02 0.02 0.03 0.03 0.04 0.05 0.05 0.05 0.05 0.05 0.06 0.04 0.04 0.03 0.03 0.02 0.01
0.00 0.00 0.00 0.00 0.00 0.00 0.01 0.01 0.01 0.00 0.01 0.01 0.01 0.01 0.01 0.01 0.01 0.01 0.02 0.02 0.02 0.02 0.02 0.02 0.02 0.02 0.02 0.02 0.02 0.03 0.05 0.06 0.07 0.05 0.03 0.03 0.04 0.04 0.02 0.02 0.01 0.01 0.01
0.00 0.00 0.00 0.00 0.00 0.00 0.00 0.01 0.01 0.00 0.00 0.01 0.01 0.01 0.01 0.01 0.01 0.01 0.02 0.03 0.02 0.02 0.02 0.02 0.02 0.02 0.03 0.04 0.05 0.06 0.06 0.07 0.07 0.08 0.06 0.04 0.03 0.03 0.02 0.02 0.02 0.01 0.01
0.00 0.00 0.00 0.00 0.00 0.00 0.00 0.00 0.01 0.00 0.00 0.01 0.01 0.01 0.01 0.01 0.01 0.02 0.02 0.02 0.02 0.03 0.03 0.03 0.03 0.03 0.03 0.04 0.06 0.08 0.09 0.11 0.13 0.12 0.09 0.08 0.06 0.04 0.03 0.03 0.03 0.03 0.02
0.01 0.00 0.00 0.01 0.01 0.00 0.01 0.01 0.01 0.00 0.00 0.01 0.01 0.01 0.01 0.01 0.01 0.02 0.02 0.02 0.02 0.03 0.05 0.05 0.04 0.04 0.04 0.04 0.05 0.07 0.08 0.10 0.11 0.10 0.08 0.07 0.07 0.06 0.04 0.03 0.04 0.04 0.03
0.01 0.01 0.01 0.01 0.01 0.00 0.01 0.01 0.01 0.01 0.01 0.01 0.01 0.01 0.02 0.02 0.02 0.03 0.02 0.02 0.02 0.02 0.04 0.04 0.03 0.03 0.03 0.03 0.05 0.05 0.07 0.09 0.09 0.08 0.07 0.08 0.08 0.10 0.09 0.06 0.05 0.05 0.05
MSLP
1006.29 1006.21 1006.13 1006.09 1006.09 1006.17 1006.33 1006.57 1006.88 1007.24 1007.62 1007.99 1008.35 1008.68 1008.97 1009.22 1009.45 1009.66 1009.87 1010.11 1010.39 1010.72 1011.11 1011.55 1012.05 1012.56 1013.06 1013.53 1013.94 1014.29 1014.60 1014.87 1015.14 1015.43 1015.76 1016.14 1016.54 1016.95 1017.33 1017.67 1017.95 1018.18 1018.37
1007.07 1007.02 1006.98 1006.98 1007.03 1007.14 1007.33 1007.59 1007.90 1008.23 1008.57 1008.89 1009.17 1009.41 1009.59 1009.74 1009.87 1010.00 1010.15 1010.35 1010.61 1010.94 1011.34 1011.79 1012.28 1012.77 1013.23 1013.64 1014.00 1014.30 1014.57 1014.82 1015.09 1015.39 1015.75 1016.13 1016.55 1016.95 1017.33 1017.65 1017.92 1018.14 1018.33
1007.69 1007.67 1007.68 1007.73 1007.83 1007.99 1008.21 1008.48 1008.77 1009.08 1009.37 1009.63 1009.85 1010.02 1010.13 1010.22 1010.29 1010.38 1010.49 1010.67 1010.91 1011.22 1011.60 1012.03 1012.47 1012.90 1013.30 1013.65 1013.95 1014.20 1014.43 1014.68 1014.95 1015.27 1015.64 1016.05 1016.46 1016.87 1017.24 1017.56 1017.83 1018.06 1018.27
1008.09 1008.09 1008.14 1008.24 1008.39 1008.58 1008.82 1009.09 1009.37 1009.65 1009.90 1010.13 1010.31 1010.44 1010.54 1010.61 1010.68 1010.75 1010.87 1011.02 1011.25 1011.53 1011.86 1012.22 1012.59 1012.94 1013.26 1013.54 1013.79 1014.01 1014.23 1014.47 1014.75 1015.09 1015.47 1015.89 1016.31 1016.71 1017.08 1017.41 1017.69 1017.94 1018.17
1008.32 1008.31 1008.37 1008.49 1008.67 1008.88 1009.12 1009.37 1009.63 1009.89 1010.12 1010.33 1010.51 1010.67 1010.79 1010.90 1010.99 1011.09 1011.22 1011.37 1011.56 1011.79 1012.05 1012.33 1012.61 1012.87 1013.12 1013.34 1013.54 1013.74 1013.96 1014.21 1014.52 1014.87 1015.27 1015.69 1016.11 1016.51 1016.87 1017.20 1017.49 1017.77 1018.03
1008.49 1008.45 1008.49 1008.59 1008.75 1008.95 1009.17 1009.39 1009.63 1009.85 1010.08 1010.29 1010.50 1010.70 1010.89 1011.06 1011.21 1011.36 1011.50 1011.65 1011.80 1011.97 1012.15 1012.33 1012.52 1012.70 1012.88 1013.05 1013.24 1013.44 1013.68 1013.96 1014.28 1014.65 1015.05 1015.47 1015.87 1016.26 1016.62 1016.94 1017.25 1017.54 1017.84
1008.78 1008.67 1008.64 1008.70 1008.81 1008.96 1009.12 1009.30 1009.49 1009.69 1009.90 1010.12 1010.37 1010.62 1010.87 1011.12 1011.33 1011.52 1011.68 1011.81 1011.92 1012.01 1012.11 1012.20 1012.31 1012.42 1012.56 1012.71 1012.90 1013.13 1013.39 1013.71 1014.06 1014.44 1014.84 1015.23 1015.61 1015.97 1016.31 1016.63 1016.94 1017.25 1017.57
1009.30 1009.09 1008.99 1008.97 1009.00 1009.07 1009.15 1009.26 1009.38 1009.53 1009.71 1009.94 1010.21 1010.50 1010.81 1011.09 1011.36 1011.57 1011.72 1011.83 1011.88 1011.91 1011.91 1011.93 1011.97 1012.05 1012.16 1012.32 1012.53 1012.80 1013.11 1013.45 1013.82 1014.21 1014.59 1014.97 1015.32 1015.65 1015.95 1016.25 1016.56 1016.88 1017.22
1010.08 1009.80 1009.61 1009.50 1009.44 1009.40 1009.39 1009.40 1009.43 1009.51 1009.64 1009.84 1010.09 1010.39 1010.71 1011.02 1011.28 1011.49 1011.61 1011.67 1011.66 1011.62 1011.57 1011.53 1011.52 1011.57 1011.69 1011.87 1012.12 1012.43 1012.77 1013.15 1013.54 1013.92 1014.29 1014.63 1014.95 1015.25 1015.53 1015.81 1016.11 1016.43 1016.79
1011.06 1010.72 1010.46 1010.27 1010.11 1009.98 1009.86 1009.76 1009.69 1009.68 1009.73 1009.86 1010.07 1010.33 1010.61 1010.89 1011.12 1011.28 1011.35 1011.35 1011.28 1011.18 1011.07 1010.99 1010.96 1011.01 1011.14 1011.35 1011.63 1011.96 1012.34 1012.73 1013.13 1013.51 1013.86 1014.19 1014.48 1014.75 1015.02 1015.29 1015.59 1015.92 1016.28
1012.06 1011.71 1011.41 1011.15 1010.93 1010.71 1010.49 1010.29 1010.12 1010.00 1009.95 1009.99 1010.12 1010.30 1010.51 1010.71 1010.87 1010.97 1010.97 1010.91 1010.78 1010.63 1010.48 1010.37 1010.33 1010.37 1010.50 1010.72 1011.02 1011.37 1011.75 1012.15 1012.54 1012.91 1013.26 1013.58 1013.87 1014.15 1014.43 1014.71 1015.02 1015.36 1015.73
1012.91 1012.57 1012.27 1011.99 1011.72 1011.44 1011.15 1010.86 1010.59 1010.38 1010.24 1010.18 1010.19 1010.28 1010.39 1010.50 1010.58 1010.59 1010.52 1010.39 1010.21 1010.01 1009.83 1009.70 1009.64 1009.67 1009.79 1010.00 1010.28 1010.61 1010.98 1011.36 1011.74 1012.11 1012.46 1012.79 1013.12 1013.43 1013.74 1014.06 1014.40 1014.77 1015.16
1013.48 1013.18 1012.91 1012.64 1012.35 1012.05 1011.71 1011.36 1011.03 1010.73 1010.50 1010.35 1010.27 1010.25 1010.26 1010.28 1010.27 1010.20 1010.07 1009.88 1009.66 1009.43 1009.22 1009.06 1008.97 1008.97 1009.05 1009.22 1009.45 1009.73 1010.04 1010.39 1010.74 1011.11 1011.48 1011.85 1012.22 1012.59 1012.97 1013.36 1013.75 1014.16 1014.57
1013.73 1013.49 1013.26 1013.02 1012.75 1012.43 1012.08 1011.71 1011.33 1010.98 1010.69 1010.46 1010.31 1010.21 1010.14 1010.08 1009.99 1009.86 1009.68 1009.46 1009.20 1008.95 1008.71 1008.51 1008.38 1008.33 1008.34 1008.42 1008.57 1008.76 1009.01 1009.29 1009.61 1009.97 1010.36 1010.77 1011.22 1011.67 1012.14 1012.61 1013.07 1013.52 1013.97
1013.75 1013.56 1013.37 1013.16 1012.91 1012.61 1012.27 1011.89 1011.49 1011.12 1010.80 1010.53 1010.33 1010.17 1010.06 1009.95 1009.81 1009.65 1009.43 1009.19 1008.91 1008.63 1008.36 1008.13 1007.94 1007.81 1007.73 1007.71 1007.73 1007.82 1007.96 1008.17 1008.44 1008.78 1009.18 1009.64 1010.15 1010.69 1011.24 1011.79 1012.33 1012.84 1013.32
1013.68 1013.53 1013.36 1013.18 1012.95 1012.67 1012.33 1011.95 1011.57 1011.19 1010.86 1010.58 1010.36 1010.19 1010.05 1009.91 1009.76 1009.58 1009.36 1009.10 1008.81 1008.51 1008.21 1007.93 1007.68 1007.46 1007.27 1007.13 1007.03 1007.00 1007.03 1007.14 1007.34 1007.64 1008.03 1008.52 1009.07 1009.67 1010.29 1010.91 1011.50 1012.06 1012.58
1013.70 1013.55 1013.40 1013.22 1012.99 1012.71 1012.38 1012.01 1011.62 1011.25 1010.93 1010.65 1010.43 1010.26 1010.12 1009.99 1009.84 1009.66 1009.43 1009.18 1008.88 1008.57 1008.24 1007.91 1007.59 1007.29 1007.01 1006.75 1006.54 1006.38 1006.29 1006.30 1006.41 1006.65 1007.00 1007.47 1008.01 1008.63 1009.28 1009.93 1010.55 1011.15 1011.69
1013.92 1013.76 1013.60 1013.40 1013.15 1012.85 1012.50 1012.12 1011.73 1011.36 1011.03 1010.77 1010.55 1010.39 1010.26 1010.13 1009.99 1009.82 1009.60 1009.34 1009.04 1008.71 1008.36 1008.00 1007.63 1007.27 1006.91 1006.57 1006.25 1005.99 1005.79 1005.69 1005.71 1005.85 1006.13 1006.52 1007.02 1007.59 1008.21 1008.85 1009.47 1010.07 1010.64
1014.37 1014.19 1013.99 1013.76 1013.47 1013.13 1012.73 1012.32 1011.90 1011.51 1011.18 1010.91 1010.70 1010.54 1010.41 1010.29 1010.15 1009.97 1009.75 1009.48 1009.17 1008.83 1008.47 1008.09 1007.69 1007.29 1006.89 1006.50 1006.13 1005.79 1005.51 1005.32 1005.23 1005.27 1005.42 1005.71 1006.09 1006.57 1007.11 1007.68 1008.27 1008.85 1009.43
1014.95 1014.75 1014.52 1014.24 1013.90 1013.50 1013.05 1012.59 1012.13 1011.71 1011.35 1011.05 1010.83 1010.65 1010.51 1010.37 1010.21 1010.02 1009.78 1009.50 1009.17 1008.82 1008.44 1008.06 1007.67 1007.27 1006.87 1006.47 1006.08 1005.71 1005.38 1005.11 1004.93 1004.84 1004.86 1004.99 1005.24 1005.57 1005.99 1006.46 1006.97 1007.52 1008.08
1015.54 1015.33 1015.07 1014.74 1014.35 1013.89 1013.38 1012.85 1012.34 1011.88 1011.47 1011.15 1010.89 1010.69 1010.51 1010.34 1010.14 1009.91 1009.63 1009.31 1008.96 1008.59 1008.21 1007.83 1007.46 1007.09 1006.73 1006.37 1006.01 1005.65 1005.30 1004.98 1004.71 1004.51 1004.39 1004.36 1004.43 1004.61 1004.87 1005.22 1005.65 1006.14 1006.69
1015.97 1015.76 1015.48 1015.13 1014.70 1014.19 1013.63 1013.06 1012.50 1011.99 1011.54 1011.17 1010.87 1010.63 1010.40 1010.17 1009.92 1009.63 1009.29 1008.92 1008.52 1008.13 1007.74 1007.37 1007.03 1006.72 1006.42 1006.11 1005.81 1005.48 1005.15 1004.81 1004.47 1004.17 1003.92 1003.75 1003.66 1003.67 1003.78 1004.01 1004.35 1004.79 1005.33
1016.15 1015.95 1015.67 1015.32 1014.87 1014.34 1013.76 1013.16 1012.57 1012.03 1011.55 1011.15 1010.81 1010.51 1010.23 1009.94 1009.61 1009.25 1008.83 1008.39 1007.94 1007.50 1007.09 1006.73 1006.41 1006.15 1005.91 1005.67 1005.43 1005.15 1004.85 1004.50 1004.13 1003.75 1003.40 1003.09 1002.87 1002.74 1002.73 1002.86 1003.13 1003.53 1004.05
1016.03 1015.85 1015.60 1015.27 1014.84 1014.32 1013.75 1013.16 1012.58 1012.04 1011.55 1011.13 1010.76 1010.42 1010.08 1009.73 1009.33 1008.87 1008.38 1007.86 1007.33 1006.83 1006.39 1006.00 1005.69 1005.45 1005.25 1005.06 1004.86 1004.63 1004.34 1003.99 1003.59 1003.16 1002.73 1002.33 1002.00 1001.78 1001.69 1001.75 1001.97 1002.35 1002.89
1015.67 1015.53 1015.32 1015.03 1014.64 1014.18 1013.66 1013.11 1012.57 1012.06 1011.60 1011.18 1010.81 1010.44 1010.07 1009.65 1009.18 1008.66 1008.08 1007.47 1006.86 1006.29 1005.77 1005.34 1005.00 1004.73 1004.53 1004.34 1004.15 1003.92 1003.63 1003.26 1002.83 1002.35 1001.86 1001.40 1001.01 1000.72 1000.59 1000.62 1000.84 1001.23 1001.79
1015.19 1015.09 1014.92 1014.68 1014.36 1013.97 1013.53 1013.06 1012.59 1012.15 1011.73 1011.35 1010.99 1010.63 1010.23 1009.78 1009.26 1008.67 1008.02 1007.33 1006.64 1005.98 1005.39 1004.87 1004.46 1004.13 1003.86 1003.62 1003.38 1003.10 1002.75 1002.33 1001.85 1001.31 1000.76 1000.25 999.81 999.51 999.36 999.40 999.64 1000.07 1000.68
Thickness
5767 5767 5766 5765 5764 5764 5763 5762 5762 5762 5762 5762 5762 5762 5761 5760 5759 5758 5758 5758 5756 5755 5754 5752 5751 5749 5747 5746 5745 5744 5743 5742 5741 5740 5739 5737 5736 5735 5733 5732 5731 5729 5728
5767 5766 5765 5764 5764 5763 5762 5761 5761 5760 5760 5760 5760 5760 5760 5759 5758 5758 5757 5757 5756 5755 5753 5752 5751 5749 5748 5746 5745 5744 5743 5742 5742 5742 5740 5738 5736 5735 5733 5732 5730 5729 5728
5767 5766 5765 5764 5763 5763 5762 5760 5760 5759 5759 5759 5758 5759 5758 5758 5757 5756 5756 5755 5754 5753 5752 5751 5750 5749 5748 5746 5745 5744 5743 5743 5742 5742 5741 5739 5737 5735 5733 5732 5730 5728 5727
5767 5766 5764 5763 5762 5762 5761 5759 5758 5757 5756 5756 5756 5756 5756 5756 5755 5754 5754 5753 5752 5752 5751 5750 5749 5748 5747 5746 5746 5745 5743 5743 5742 5741 5741 5739 5737 5735 5733 5732 5730 5728 5726
5767 5766 5765 5763 5762 5761 5759 5759 5756 5755 5754 5753 5754 5754 5754 5753 5753 5753 5752 5751 5751 5750 5749 5748 5748 5747 5747 5746 5745 5745 5744 5743 5742 5741 5740 5738 5736 5735 5733 5731 5729 5727 5726
5767 5765 5764 5763 5762 5760 5758 5756 5755 5754 5752 5751 5752 5751 5751 5751 5751 5750 5750 5749 5749 5748 5747 5747 5746 5746 5745 5745 5744 5744 5743 5743 5742 5741 5740 5738 5736 5735 5733 5731 5729 5727 5725
5765 5764 5763 5761 5760 5758 5757 5755 5754 5752 5750 5750 5748 5746 5747 5749 5748 5749 5748 5747 5747 5746 5746 5745 5745 5745 5744 5744 5743 5743 5743 5743 5742 5741 5739 5738 5736 5734 5732 5731 5729 5727 5725
5764 5763 5761 5760 5758 5756 5755 5754 5752 5749 5748 5748 5744 5740 5738 5740 5743 5746 5745 5745 5745 5745 5744 5744 5744 5743 5743 5743 5742 5742 5742 5742 5741 5740 5739 5738 5736 5734 5732 5730 5728 5726 5724
5762 5761 5759 5758 5757 5755 5753 5752 5750 5748 5745 5745 5744 5740 5733 5731 5735 5740 5742 5742 5742 5742 5743 5743 5743 5743 5742 5741 5741 5741 5740 5740 5739 5738 5738 5736 5735 5733 5732 5729 5727 5725 5723
5760 5759 5758 5756 5754 5753 5751 5750 5749 5747 5745 5742 5742 5741 5738 5736 5731 5731 5736 5738 5739 5740 5740 5741 5741 5741 5741 5740 5740 5740 5739 5738 5738 5737 5736 5735 5733 5732 5730 5728 5726 5725 5723
5758 5757 5755 5754 5752 5750 5749 5748 5747 5746 5744 5741 5739 5737 5736 5734 5732 5729 5728 5732 5734 5737 5738 5738 5738 5739 5738 5738 5738 5738 5738 5737 5736 5735 5734 5733 5732 5730 5729 5727 5726 5724 5722
5754 5753 5752 5751 5749 5748 5746 5746 5745 5743 5742 5740 5738 5736 5734 5732 5730 5728 5726 5727 5728 5732 5736 5736 5736 5736 5736 5736 5736 5736 5736 5736 5735 5734 5733 5732 5730 5729 5728 5726 5725 5723 5721
5749 5749 5748 5747 5746 5745 5744 5743 5741 5740 5739 5737 5736 5734 5733 5732 5731 5729 5727 5725 5725 5728 5731 5733 5734 5734 5734 5734 5734 5734 5734 5733 5733 5732 5731 5730 5728 5727 5726 5724 5723 5722 5720
5746 5746 5745 5743 5742 5741 5740 5739 5737 5737 5736 5734 5733 5732 5730 5730 5729 5728 5726 5723 5722 5723 5725 5728 5731 5732 5732 5732 5732 5731 5731 5731 5730 5729 5728 5727 5726 5725 5723 5722 5721 5719 5718
5743 5742 5741 5740 5739 5737 5736 5734 5733 5732 5731 5730 5729 5728 5727 5727 5726 5726 5724 5723 5720 5717 5719 5723 5726 5729 5729 5729 5729 5728 5728 5728 5727 5726 5725 5724 5724 5723 5721 5720 5719 5717 5716
5740 5738 5737 5735 5734 5733 5731 5730 5728 5728 5726 5725 5725 5724 5723 5722 5722 5721 5721 5720 5719 5717 5716 5721 5722 5725 5725 5725 5725 5725 5725 5725 5724 5723 5723 5722 5721 5721 5720 5718 5717 5715 5714
5736 5734 5733 5731 5729 5728 5727 5725 5724 5722 5721 5720 5719 5718 5717 5717 5717 5717 5716 5715 5714 5714 5713 5717 5719 5720 5720 5720 5721 5720 5721 5721 5721 5720 5720 5719 5718 5717 5716 5715 5714 5713 5711
5733 5731 5729 5727 5725 5723 5722 5720 5718 5718 5716 5715 5714 5713 5712 5712 5711 5711 5711 5711 5710 5710 5710 5710 5712 5713 5714 5715 5715 5715 5716 5716 5716 5717 5716 5715 5714 5714 5713 5712 5711 5710 5708
5729 5727 5724 5722 5720 5719 5717 5716 5714 5713 5711 5710 5709 5708 5707 5707 5706 5705 5705 5705 5705 5706 5705 5705 5706 5707 5708 5709 5709 5709 5710 5710 5711 5712 5712 5711 5711 5710 5710 5709 5708 5707 5705
5725 5722 5720 5718 5716 5715 5713 5712 5710 5708 5706 5705 5705 5704 5703 5702 5702 5701 5701 5700 5700 5700 5699 5699 5699 5700 5701 5701 5701 5702 5702 5704 5705 5707 5707 5707 5707 5707 5706 5705 5704 5703 5702
5721 5718 5715 5713 5712 5710 5709 5707 5705 5704 5701 5700 5699 5699 5698 5698 5698 5697 5697 5695 5694 5693 5693 5692 5693 5693 5694 5694 5695 5697 5697 5698 5699 5701 5701 5702 5701 5701 5701 5701 5700 5699 5698
5715 5712 5710 5708 5706 5705 5704 5702 5700 5698 5696 5694 5693 5693 5693 5693 5692 5692 5691 5691 5690 5688 5687 5686 5686 5686 5688 5689 5690 5690 5690 5690 5692 5696 5694 5696 5696 5697 5697 5698 5698 5696 5695
5709 5706 5704 5702 5700 5699 5698 5696 5695 5693 5691 5689 5687 5686 5687 5688 5687 5686 5686 5685 5684 5683 5682 5682 5681 5681 5682 5683 5682 5683 5683 5684 5686 5689 5686 5688 5690 5691 5693 5694 5693 5692 5691
5703 5700 5698 5696 5694 5693 5691 5690 5688 5686 5684 5683 5682 5680 5679 5679 5680 5679 5679 5678 5677 5677 5677 5676 5676 5676 5677 5677 5676 5677 5678 5678 5680 5680 5679 5679 5683 5684 5688 5688 5688 5687 5686
5697 5694 5692 5689 5687 5686 5684 5683 5681 5679 5677 5676 5675 5674 5672 5671 5671 5670 5670 5670 5670 5671 5671 5671 5670 5670 5670 5669 5669 5669 5669 5669 5671 5673 5673 5673 5676 5676 5679 5681 5682 5681 5680
5690 5688 5685 5682 5680 5678 5677 5675 5672 5671 5669 5668 5667 5665 5664 5663 5663 5662 5661 5661 5661 5662 5663 5663 5662 5662 5662 5662 5661 5661 5662 5661 5662 5665 5668 5666 5668 5668 5670 5674 5675 5674 5673